Location: Burbank
(38.7788°N, 114.0429°W)
Time: 13:53:24
(UTC+00:00)

Injun/Solrad 3 - Pass Details

Date: 14 May 2026
Orbit: 867 x 989 km, 66.8° (Epoch: 8 June)

Event Time Altitude Azimuth Distance (km) Brightness Sun altitude
Rises 01:36:39 0° 274° (W) 3,549 12.9 10.8°
Reaches altitude 10° 01:41:26 10° 308° (NW) 2,646 11.9 9.9°
Maximum altitude 01:43:13 11° 325° (NW) 2,570 11.2 9.5°
Drops below altitude 10° 01:45:02 10° 342° (NNW) 2,673 10.9 9.2°
Sets 01:50:00 0° 16° (NNE) 3,655 11.0 8.3°
